OpenBCM V1.07b12 (Linux)

Packet Radio Mailbox

DB0FHN

[JN59NK Nuernberg]

 Login: GUEST





  
DC9ZP  > KEPLER   14.03.03 18:41l 153 Lines 7420 Bytes #999 (0) @ DL
BID : E3DDB0NDK00K
Read: DB0FHN GUEST
Subj: 1000 NORAD-Keps Day =70
Path: DB0FHN<DB0RGB<DB0IGL<DB0FSG<DB0GAP<DB0KFB<DB0CZ<DB0GE<LX0PAC<DB0NDK
Sent: 030314/1632z @:DB0NDK.#NRW.DEU.EU [IGDF Niederkassel-JO30MU] openbcm1.03
From: DC9ZP @ DB0NDK.#NRW.DEU.EU (Manfred)
To:   KEPLER @ DL
X-Info: No login password

AO-40
1 26609U 00072B   03070.09237754 -.00000207  00000-0  10000-3 0  3155
2 26609   8.2556  60.3595 7949525 152.2353 297.2195  1.25597176 10842
AO-07
1 07530U 74089B   03071.71830633 -.00000029  00000-0  10000-3 0 01667
2 07530 101.7543 119.2910 0012292 034.9914 325.1964 12.53564884295964
AO-10
1 14129U 83058B   03071.26486336 -.00000187  00000-0  10000-3 0 09216
2 14129 026.0086 160.7187 6018657 334.7654 005.2078 02.05868201148485
UO-11
1 14781U 84021B   03072.22260540  .00002267  00000-0  32084-3 0   942
2 14781  98.1191  46.3244 0009862 131.9308 228.2744 14.78072688 19588
RS-10/11
1 18129U 87054A   03072.25242153  .00000086  00000-0  77322-4 0  2173
2 18129  82.9259 129.7891 0011677 155.7672 204.4029 13.72703612787623
FO-20
1 20480U 90013C   03071.91939972  .00000017  00000-0  11852-3 0 04800
2 20480 099.0497 030.4633 0540198 313.3009 042.4218 12.83331100613383
RS-12/13
1 21089U 91007A   03071.96300042  .00000084  00000-0  73422-4 0 05127
2 21089 082.9249 164.7699 0027719 222.8528 137.0473 13.74406830606860
RS-15
1 23439U 94085A   03071.91007706 -.00000036  00000-0  16941-3 0  6876
2 23439  64.8199   5.3536 0146433 110.6887 250.9799 11.27547827338115
FO-29
1 24278U 96046B   03071.95105674  .00000100  00000-0  13576-3 0 05718
2 24278 098.5409 220.1365 0350874 158.3518 203.2873 13.52875954324336
SO-33
1 25509U 98061B   03071.26260868  .00000691  00000-0  12734-3 0  7998
2 25509  31.4302  30.6559 0357370 132.3203 230.8259 14.27459952228417
UO-14
1 20437U 90005B   03072.70877913  .00000197  00000-0  89885-4 0  1850
2 20437  98.2686 115.2124 0011279 128.8921 231.3268 14.31246465685802
AO-16
1 20439U 90005D   03071.67140574  .00000248  00000-0  10906-3 0  8630
2 20439  98.3128 126.0371 0011276 138.6593 221.5448 14.31481932685699
WO-18
1 20441U 90005F   03072.21009254  .00000238  00000-0  10498-3 0   326
2 20441  98.3300 129.6947 0012160 137.4756 222.7371 14.31563417685825
LO-19
1 20442U 90005G   03072.18593065  .00000260  00000-0  11281-3 0  9832
2 20442  98.3442 132.7378 0012142 136.1395 224.0749 14.31726975685870
UO-22
1 21575U 91050B   03072.17308361  .00000503  00000-0  17544-3 0  7479
2 21575  98.1435  63.1588 0008528  66.0013 294.2069 14.39172721611537
KO-23
1 22077U 92052B   03071.95778755 -.00000037  00000-0  10000-3 0 02426
2 22077 066.0861 078.8413 0015744 268.8847 091.0368 12.86409385497184
AO-27
1 22825U 93061C   03072.85977019  .00000193  00000-0  92314-4 0  5077
2 22825  98.2721 101.3685 0008205 183.8324 176.2797 14.28952227493207
IO-26
1 22826U 93061D   03071.62621684  .00000216  00000-0  10112-3 0 03244
2 22826 098.2725 101.3211 0008401 188.6553 171.4485 14.29175285493070
KO-25
1 22828U 93061F   03072.65119586  .00000197  00000-0  93029-4 0  4465
2 22828  98.2704 102.5611 0009766 163.9369 196.2125 14.29516609461421
TO-31
1 25396U 98043C   03071.95782552 -.00000043  00000-0  00000-0 0 08642
2 25396 098.6235 148.6250 0003969 094.0854 266.0782 14.23516489242713
GO-32
1 25397U 98043D   03071.91803943  .00000104  00000-0  65201-4 0 01599
2 25397 098.6178 147.4333 0002169 084.1327 276.0098 14.22965432242676
UO-36
1 25693U 99021A   03072.78351243  .00000541  00000-0  97228-4 0  7823
2 25693  64.5606 299.7319 0022395 315.0924  44.8366 14.76418292209689
AO-37
1 26065U 00004E   03072.23414432  .00000294  00000-0  12176-3 0  7542
2 26065 100.2079 131.0763 0037104 223.6281 136.1963 14.35520743163632
SO-41
1 26545U 00057A   03071.65634402  .00001577  00000-0  22749-3 0 04245
2 26545 064.5596 324.0365 0050554 235.1243 124.5115 14.79044645132493
MO-46
1 26548U 00057D   03071.77962383  .00001879  00000-0  25445-3 0 04288
2 26548 064.5589 316.2988 0043887 234.5667 125.1315 14.81351519132668
SO-42
1 26549U 00057E   03072.79093205  .00001550  00000-0  22872-3 0  7156
2 26549  64.5506 324.7790 0055014 234.9227 124.6683 14.77983208132577
NO-44
1 26931U 01043C   03072.40993873  .00000400  00000-0  19000-3 0  4233
2 26931  67.0457 196.8079 0005285 271.5244  88.5250 14.29130285 75619
AO-49
1 27605U 02058A   03072.62069882  .00000907  00000-0  16617-3 0   810
2 27605  64.5512 127.2377 0035309 103.3085 257.1948 14.71411959 12207
SO-50
1 27607U 02058C   03072.63807858  .00001369  00000-0  24758-3 0   746
2 27607  64.5506 127.7896 0036451  99.4769 261.0435 14.69961155 12194
NOAA-10
1 16969U 86073A   03072.68578337  .00000252  00000-0  12166-3 0  6944
2 16969  98.7326  66.7529 0013221  23.2132 336.9639 14.27074661857204
NOAA-11
1 19531U 88089A   03072.85386541  .00000227  00000-0  11835-3 0  5329
2 19531  98.8958 154.1561 0012272 134.1517 226.1142 14.14549368746096
NOAA-12
1 21263U 91032A   03072.86386589  .00000539  00000-0  22986-3 0    26
2 21263  98.6298  62.1071 0012226 317.8161  42.2565 14.25100314614573
MET-3/5
1 21655U 91056A   03071.93382140  .00000051  00000-0  10000-3 0 06268
2 21655 082.5550 023.0585 0013959 137.9840 222.2355 13.16981011556422
MET-2/21
1 22782U 93055A   03072.24285484  .00000009  00000-0 -46669-5 0  5400
2 22782  82.5506 196.9136 0021063 283.2985  76.5830 13.83532885481225
OKEAN-4
1 23317U 94066A   03072.41870640  .00001858  00000-0  23614-3 0  1907
2 23317  82.5397 307.6613 0022756 340.6373  19.3977 14.80982100453489
NOAA-14
1 23455U 94089A   03072.62426702  .00000205  00000-0  13409-3 0  5533
2 23455  99.1860  91.7983 0009678 160.8545 199.2991 14.13306741422738
SICH-1
1 23657U 95046A   03072.84318315  .00001938  00000-0  25206-3 0  9935
2 23657  82.5258  88.0359 0023926 320.4180  39.5286 14.80025593405670
NOAA-15
1 25338U 98030A   03072.64101168  .00000251  00000-0  12731-3 0   389
2 25338  98.5473  94.1648 0009667 248.0421 111.9731 14.24256259251089
RESURS
1 25394U 98043A   03072.89540655  .00000229  00000-0  11890-3 0  4698
2 25394  98.6287 150.3885 0002288  55.7690 304.3705 14.23887332242851
FENGYUN1
1 25730U 99025A   03071.97855013 -.00000042  00000-0  92318-7 0 07895
2 25730 098.6328 095.5371 0013719 301.3585 058.6245 14.11735898197791
OKEAN-0
1 25860U 99039A   03071.92209349  .00001007  00000-0  16564-3 0 01276
2 25860 097.8593 118.7325 0001502 049.0068 311.1270 14.72643762196223
NOAA-16
1 26536U 00055A   03072.40052826  .00000575  00000-0  33902-3 0  2441
2 26536  98.9044  20.5195 0009876 239.6347 120.3847 14.11920555127372
NOAA-17
1 27453U 02032A   03072.62363924  .00000348  00000-0  17327-3 0  3357
2 27453  98.7519 143.7089 0011074 292.8487  67.1520 14.23308826 37241
HUBBLE
1 20580U 90037B   03071.81938045  .00003562  00000-0  28176-3 0  3563
2 20580  28.4668 253.5210 0004294 146.2882 345.1654 14.97929617505978
UARS
1 21701U 91063B   03072.04548149  .00001194  00000-0  10703-3 0  8456
2 21701  56.9821 301.0763 0003912 103.8356 256.3070 15.02912694629093
PO-34
1 25520U 98064B   03072.17041140  .00003507  00000-0  17781-3 0  6473
2 25520  28.4587  73.2968 0006580 233.7833 126.2151 15.14008660241010
ISS
1 25544U 98067A   03072.79982639  .00048946  00000-0  62108-3 0  7770
2 25544  51.6335 139.3247 0008632 317.5838 189.8736 15.58892735246128
WO-39
1 26061U 00004A   03072.40358733  .00000827  00000-0  29167-3 0  7863
2 26061 100.2025 133.7029 0034939 214.4604 145.4313 14.37855223163811
OO-38
1 26063U 00004C   03071.72011336  .00000275  00000-0  11523-3 0  7396
2 26063 100.2070 130.3126 0036676 224.4784 135.3454 14.35491788163560
NO-45
1 26932U 01043D   03072.87498635  .00000224  00000-0  12050-3 0  4187
2 26932  67.0561 195.3088 0004253 249.2223 110.8422 14.29305098 75709


Read previous mail | Read next mail


 07.09.2025 21:25:50lGo back Go up